International Skating Union - Official Site

ISU World Cup Harbin
November 11-13, 2016

Draw | Lap Times | Index | World Cup

Referee: Erik  ØSMUNDSET  (NOR)
Starter: Andrè  de VRIES  (NED)
StartTime: EndTime: Air Temp: Ice Temp: Humidity:
16:45 17:52 13.3℃ -6.4℃ 45.0%
Result 5000m Men Division A
Rankings as of Nov 13 2016 1:28PM
Rank: No.: Name: Nation: Time: Behind: Points:
1 92 Sven  Kramer NED NED 6:21.60200m - 19.05 - (19.0)
600m - 48.86 - (29.8)
1000m - 1:19.88 - (31.0)
1400m - 1:50.16 - (30.2)
1800m - 2:20.06 - (29.9)
2200m - 2:50.04 - (29.9)
2600m - 3:20.24 - (30.2)
3000m - 3:49.98 - (29.7)
3400m - 4:19.95 - (29.9)
3800m - 4:50.03 - (30.0)
4200m - 5:20.18 - (30.1)
4600m - 5:50.53 - (30.3)
5000m - 6:21.60 - (31.0)
100
2 87 Jorrit  Bergsma NED NED 6:22.38200m - 19.24 - (19.2)
600m - 49.05 - (29.8)
1000m - 1:19.04 - (29.9)
1400m - 1:49.18 - (30.1)
1800m - 2:19.26 - (30.0)
2200m - 2:49.36 - (30.1)
2600m - 3:19.65 - (30.2)
3000m - 3:49.91 - (30.2)
3400m - 4:20.11 - (30.2)
3800m - 4:50.48 - (30.3)
4200m - 5:20.93 - (30.4)
4600m - 5:51.54 - (30.6)
5000m - 6:22.38 - (30.8)
0.78 80
3 91 Erik Jan  Kooiman NED NED 6:26.43200m - 20.21 - (20.2)
600m - 50.21 - (30.0)
1000m - 1:20.49 - (30.2)
1400m - 1:51.06 - (30.5)
1800m - 2:21.86 - (30.8)
2200m - 2:52.58 - (30.7)
2600m - 3:23.33 - (30.7)
3000m - 3:54.10 - (30.7)
3400m - 4:24.91 - (30.8)
3800m - 4:55.47 - (30.5)
4200m - 5:26.02 - (30.5)
4600m - 5:56.34 - (30.3)
5000m - 6:26.43 - (30.0)
4.83 70
4 5 Bart  Swings BEL BEL 6:27.64200m - 19.02 - (19.0)
600m - 48.70 - (29.6)
1000m - 1:18.77 - (30.0)
1400m - 1:49.13 - (30.3)
1800m - 2:19.49 - (30.3)
2200m - 2:49.86 - (30.3)
2600m - 3:20.26 - (30.4)
3000m - 3:50.81 - (30.5)
3400m - 4:21.52 - (30.7)
3800m - 4:52.41 - (30.8)
4200m - 5:23.75 - (31.3)
4600m - 5:55.47 - (31.7)
5000m - 6:27.64 - (32.1)
6.04 60
5 109 Peter  Michael NZL NZL 6:27.89200m - 19.37 - (19.3)
600m - 49.53 - (30.1)
1000m - 1:20.11 - (30.5)
1400m - 1:51.66 - (31.5)
1800m - 2:22.32 - (30.6)
2200m - 2:53.15 - (30.8)
2600m - 3:23.85 - (30.7)
3000m - 3:54.61 - (30.7)
3400m - 4:25.30 - (30.6)
3800m - 4:55.79 - (30.4)
4200m - 5:26.43 - (30.6)
4600m - 5:57.24 - (30.8)
5000m - 6:27.89 - (30.6)
6.29 50
6 89 Douwe  de Vries NED NED 6:28.34200m - 18.83 - (18.8)
600m - 48.49 - (29.6)
1000m - 1:19.03 - (30.5)
1400m - 1:49.69 - (30.6)
1800m - 2:20.56 - (30.8)
2200m - 2:51.27 - (30.7)
2600m - 3:22.30 - (31.0)
3000m - 3:53.43 - (31.1)
3400m - 4:24.66 - (31.2)
3800m - 4:55.82 - (31.1)
4200m - 5:27.17 - (31.3)
4600m - 5:58.17 - (31.0)
5000m - 6:28.34 - (30.1)
6.74 45
7 97 Patrick  Roest NED NED 6:29.27200m - 19.01 - (19.0)
600m - 48.32 - (29.3)
1000m - 1:18.57 - (30.2)
1400m - 1:49.14 - (30.5)
1800m - 2:19.88 - (30.7)
2200m - 2:50.48 - (30.6)
2600m - 3:21.15 - (30.6)
3000m - 3:51.91 - (30.7)
3400m - 4:22.87 - (30.9)
3800m - 4:54.35 - (31.4)
4200m - 5:26.28 - (31.9)
4600m - 5:57.88 - (31.6)
5000m - 6:29.27 - (31.4)
7.67 40
8 8 Ted-Jan  Bloemen CAN CAN 6:29.81200m - 19.09 - (19.0)
600m - 49.24 - (30.1)
1000m - 1:19.51 - (30.2)
1400m - 1:49.96 - (30.4)
1800m - 2:20.50 - (30.5)
2200m - 2:50.99 - (30.4)
2600m - 3:21.76 - (30.7)
3000m - 3:52.36 - (30.6)
3400m - 4:23.17 - (30.8)
3800m - 4:54.41 - (31.2)
4200m - 5:26.18 - (31.7)
4600m - 5:57.69 - (31.5)
5000m - 6:29.81 - (32.1)
8.21 35
9 47 Patrick  Beckert GER GER 6:30.91200m - 19.47 - (19.4)
600m - 49.25 - (29.7)
1000m - 1:20.32 - (31.0)
1400m - 1:51.56 - (31.2)
1800m - 2:22.57 - (31.0)
2200m - 2:53.73 - (31.1)
2600m - 3:24.90 - (31.1)
3000m - 3:56.04 - (31.1)
3400m - 4:27.15 - (31.1)
3800m - 4:58.10 - (30.9)
4200m - 5:29.09 - (30.9)
4600m - 5:59.92 - (30.8)
5000m - 6:30.91 - (31.0)
9.31 30
10 46 Alexis  Contin FRA FRA 6:31.27200m - 20.02 - (20.0)
600m - 50.42 - (30.4)
1000m - 1:21.58 - (31.1)
1400m - 1:52.38 - (30.8)
1800m - 2:23.27 - (30.8)
2200m - 2:54.01 - (30.7)
2600m - 3:24.80 - (30.7)
3000m - 3:55.56 - (30.7)
3400m - 4:26.45 - (30.8)
3800m - 4:57.37 - (30.9)
4200m - 5:28.25 - (30.8)
4600m - 5:59.38 - (31.1)
5000m - 6:31.27 - (31.8)
9.67 25
11 57 Andrea  Giovannini ITA ITA 6:32.60200m - 18.71 - (18.7)
600m - 48.06 - (29.3)
1000m - 1:18.94 - (30.8)
1400m - 1:49.66 - (30.7)
1800m - 2:20.27 - (30.6)
2200m - 2:50.83 - (30.5)
2600m - 3:21.78 - (30.9)
3000m - 3:52.62 - (30.8)
3400m - 4:23.93 - (31.3)
3800m - 4:55.68 - (31.7)
4200m - 5:27.55 - (31.8)
4600m - 5:59.75 - (32.2)
5000m - 6:32.60 - (32.8)
11.00 21
12 49 Moritz  Geisreiter GER GER 6:33.60200m - 19.36 - (19.3)
600m - 49.90 - (30.5)
1000m - 1:20.95 - (31.0)
1400m - 1:52.19 - (31.2)
1800m - 2:23.07 - (30.8)
2200m - 2:53.90 - (30.8)
2600m - 3:24.97 - (31.0)
3000m - 3:56.22 - (31.2)
3400m - 4:27.50 - (31.2)
3800m - 4:58.94 - (31.4)
4200m - 5:30.48 - (31.5)
4600m - 6:02.10 - (31.6)
5000m - 6:33.60 - (31.5)
12.00 18
13 105 Sverre Lunde  Pedersen NOR NOR 6:33.84200m - 18.62 - (18.6)
600m - 48.97 - (30.3)
1000m - 1:19.90 - (30.9)
1400m - 1:50.72 - (30.8)
1800m - 2:21.07 - (30.3)
2200m - 2:51.51 - (30.4)
2600m - 3:22.24 - (30.7)
3000m - 3:53.14 - (30.9)
3400m - 4:23.90 - (30.7)
3800m - 4:54.76 - (30.8)
4200m - 5:26.24 - (31.4)
4600m - 5:58.98 - (32.7)
5000m - 6:33.84 - (34.8)
12.24 16
14 124 Danila  Semerikov RUS RUS 6:36.64200m - 19.22 - (19.2)
600m - 50.49 - (31.2)
1000m - 1:21.95 - (31.4)
1400m - 1:53.45 - (31.5)
1800m - 2:24.46 - (31.0)
2200m - 2:55.67 - (31.2)
2600m - 3:27.19 - (31.5)
3000m - 3:58.68 - (31.4)
3400m - 4:29.86 - (31.1)
3800m - 5:00.81 - (30.9)
4200m - 5:32.36 - (31.5)
4600m - 6:04.12 - (31.7)
5000m - 6:36.64 - (32.5)
15.04 14
15 7 Jordan  Belchos CAN CAN 6:36.67200m - 19.09 - (19.0)
600m - 48.13 - (29.0)
1000m - 1:18.57 - (30.4)
1400m - 1:49.43 - (30.8)
1800m - 2:20.10 - (30.6)
2200m - 2:51.14 - (31.0)
2600m - 3:22.08 - (30.9)
3000m - 3:53.58 - (31.5)
3400m - 4:25.50 - (31.9)
3800m - 4:57.80 - (32.3)
4200m - 5:30.52 - (32.7)
4600m - 6:03.52 - (33.0)
5000m - 6:36.67 - (33.1)
15.07 12
16 106 Thomas-Henrik  Søfteland NOR NOR 6:44.88200m - 19.95 - (19.9)
600m - 50.38 - (30.4)
1000m - 1:21.65 - (31.2)
1400m - 1:53.19 - (31.5)
1800m - 2:24.42 - (31.2)
2200m - 2:55.72 - (31.3)
2600m - 3:27.24 - (31.5)
3000m - 3:59.06 - (31.8)
3400m - 4:31.19 - (32.1)
3800m - 5:03.72 - (32.5)
4200m - 5:36.80 - (33.0)
4600m - 6:10.61 - (33.8)
5000m - 6:44.88 - (34.2)
23.28 10